Regional Weather Roundup
Issued by NWS State College, PA

Home | Current Version | Previous Version | Text Only | Print | Product List | Glossary Off
Versions: 1 2 3 4 5 6 7 8 9 10 11 12 13 14 15 16 17 18 19 20 21 22 23 24 25 26 27 28 29 30 31 32 33 34 35 36 37 38 39 40 41 42 43 44 45 46 47 48 49 50

000
ASUS41 KCTP 162010
RWRCTP

REGIONAL WEATHER ROUNDUP
NATIONAL WEATHER SERVICE STATE COLLEGE PA
300 PM EST MON JAN 16 2017

Note: "fair" indicates few or no clouds below 12,000 feet with no
significant weather and/or obstructions to visibility.

* = STATION THAT DOES NOT REPORT PRECIPITATION /E.G. RAIN...SNOW...ETC/
    THUNDER OR FOG.

PAZ002>004-007>009-013>016-020>023-029>032-162100-
WESTERN PENNSYLVANIA

CITY           SKY/WX    TMP DP  RH WIND       PRES   REMARKS
ERIE           LGT RAIN  34  28  79 CALM      30.29R
MEADVILLE      CLOUDY    39  15  37 CALM      30.24F
FRANKLIN*        N/A     36  21  55 SE3       30.25F
NEW CASTLE     CLOUDY    37  25  61 CALM      30.26F
BEAVER COUNTY  NOT AVBL
BUTLER*        CLOUDY    39  28  65 CALM      30.28R
PITTSBURGH INT DRIZZLE   38  28  67 E3        30.24S
PITTSBURGH     CLOUDY    39  29  67 CALM      30.24S
INDIANA*       CLOUDY    43  34  70 CALM      30.27S
LATROBE        CLOUDY    39  32  75 CALM      30.26S
WASHINGTON CO* CLOUDY    39  34  81 CALM      30.24S
$$

PAZ004>006-010>012-017>019-024>028-033>037-041-042-045-046-049>053-162100-
CENTRAL PENNSYLVANIA

CITY           SKY/WX    TMP DP  RH WIND       PRES   REMARKS
BRADFORD       CLOUDY    42   8  24 SW5       30.23F
DUBOIS         CLOUDY    37  27  67 SE5       30.23F
CLEARFIELD     CLOUDY    36  26  67 NE5       30.27F
JOHNSTOWN      CLOUDY    38  32  79 CALM      30.22S
ALTOONA        CLOUDY    37  29  72 CALM      30.28S
STATE COLLEGE  CLOUDY    36  25  64 CALM      30.30F
WILLIAMSPORT   CLOUDY    37  23  56 SE5       30.33F
SELINSGROVE    CLOUDY    35  25  66 S6        30.36S
FT INDIANTOWN  CLOUDY    36  23  60 S3        30.36S
CAPITAL CITY   CLOUDY    37  23  56 E6        30.37S
HARRISBURG     CLOUDY    36  25  64 SE5       30.36F
YORK           CLOUDY    37  28  70 CALM      30.36R
$$

PAZ038>040-043-044-047-048-054-055-060>062-067>071-162100-
EASTERN PENNSYLVANIA

CITY           SKY/WX    TMP DP  RH WIND       PRES   REMARKS
SCRANTON       CLOUDY    39  24  55 SW8       30.31F
MOUNT POCONO   CLOUDY    38  23  55 W9        30.27S
ALLENTOWN      CLOUDY    41  24  51 W9        30.36F
QUAKERTOWN*    PTCLDY    39  23  52 SW5       30.37S
READING        CLOUDY    39  23  52 W8        30.36F
LANCASTER      CLOUDY    38  25  59 S5        30.37F
COATESVILLE    CLOUDY    37  23  56 CALM      30.37S
POTTSTOWN      CLOUDY    41  23  48 CALM      30.38F
BLUE BELL      MOSUNNY   39  25  56 CALM      30.37S
DOYLESTOWN     SUNNY     42  23  46 SW3       30.36F
WILLOW GROVE   NOT AVBL
NORTH PHILA    SUNNY     42  22  44 SW7       30.40S
PHILADELPHIA   PTSUNNY   42  22  44 SW8       30.40S
$$



USA.gov is the U.S. government's official web portal to all federal, state and local government web resources and services.